星链-4447 (STARLINK-4447 )

导读

STARLINK-4447是美国SpaceX公司星链(Starlink)卫星互联网星座中的一颗卫星,于2022年8月12日发射入轨,属于星链低轨卫星星座组网的组成部分。它运行在近地轨道,为全球范围用户提供高速卫星互联网接入服务,助力星链完成全球宽带网络覆盖的部署目标。

Basic Information
目录编号:
53472
目录名称:
STARLINK-4447
国际标识:
2022-099H
轨道中心:
EARTH
卫星名称:
星链-4447
卫星全名:
星链-4447 (STARLINK-4447 )
卫星状态:
在轨 (已飞行1484 天)
发射日期:
2022-08-12 UTC
国别 :
美国 (US)
星等 :
--
Orbit Information
数据来源 国际轨道数据
星历时间: 2026-09-03T21:19:08+0800
23小时前
查看轨道信息
半长轴: 6927.642km
偏心率: 0.000088
轨道倾角: 97.285°
近地点辐角 85.694°
升交点赤经 1.237°
平近点角 274.439°
近地点: 548.895km
远地点: 550.115km
周期: 95.640分钟
每日圈数: 15.056521
Detailed Information
固有亮度:
5
最大亮度:
2.5
卫星平台:
Starlink v1.5
覆盖范围:
全球
运营商:
太空探索技术公司
运营商所在国:
美国
制造商(研发单位):
太空探索技术公司
制造商所在国:
美国
使用方式:
暂无
Satellite Introduction
星链(Starlink)计划是由太空探索技术公司(SpaceX)提出的一个巨型低轨卫星互联网星座项目,计划在2019年至2024年间在太空搭建由约1.2万颗卫星组成的“星链”网络,其中1584颗将部署在地球上空550千米处的近地轨道,并从2020年开始工作。该卫星仍在工作。
2D Orbit Map
3D Orbit Map
Orbit Altitude Analysis Chart
Orbit Inclination Analysis Chart
Orbit Comprehensive Analysis Chart
View Comprehensive Chart
Conjunction Data List
Event ID Objects TCA Miss Dist (km) Collision Risk Probability Collision Risk Index (CRI) Action
CDM_260903-105302-654605-347226
MEGSAT 1 (26546)
2026-09-03T
10:53:17+0000
1.518 km
极远距离
6.505464E-6 低风险 0.51